(2020 VB3) |
Classification: Apollo [NEO] SPK-ID: 54087744 |
[ hide orbit diagram ]
For accurate long-term ephemerides, please instead use our Horizons system.This orbit viewer was implemented using two-body methods, and hence should not be used for determining accurate long-term trajectories (over several years or decades) or planetary encounter circumstances.
Orbital Elements at Epoch 2459000.5 (2020-May-31.0) TDB
Reference: JPL 4 (heliocentric ecliptic J2000)
Element | Value | Uncertainty (1-sigma) | Units |
e | .1734256462274447 | 0.00011649 | |
a | 1.032873672188212 | 4.8815e-05 | au |
q | .8537468881176578 | 8.0003e-05 | au |
i | 4.763144515279924 | 0.0033806 | deg |
node | 231.9839196792067 | 0.00015817 | deg |
peri | 268.3847950000302 | 0.0010566 | deg |
M | 134.2315419120931 | 0.023463 | deg |
tp | 2458857.537769235265 (2020-Jan-09.03776924) | 0.035124 | TDB |
period | 383.4151224233815 1.05 | 0.027181 7.442e-05 | d yr |
n | .9389301019861037 | 6.6563e-05 | deg/d |
Q | 1.212000456258767 | 5.7281e-05 | au |
|
| | Orbit Determination Parameters
Additional Information
|
[ show covariance matrix ]
Physical Parameter Table
Parameter |
Symbol |
Value |
Units |
Sigma |
Reference |
Notes |
absolute magnitude |
H |
29.632 |
|
.55258 |
4 |
autocmod 2.8 |
|
[ show close-approach data ]
|